Weather History for Ozark, AL

Change the Weather History Date:

Wednesday, April 10, 2013

  Actual Average Record
Temperature  
Mean Temperature 70 °F -  
Max Temperature 85 °F 73 °F 91 °F (1999)
Min Temperature 57 °F 51 °F 41 °F (2003)
Cooling Degree Days 6    
Growing Degree Days 20 (Base 50)    
Moisture  
Dew Point 59 °F    
Average Humidity 69    
Maximum Humidity 96    
Minimum Humidity 43    
Precipitation  
Precipitation 0.00 in - - ()
Sea Level Pressure  
Sea Level Pressure 30.02 in    
Wind  
Wind Speed 5 mph (SE)    
Max Wind Speed 14 mph    
Max Gust Speed 16 mph    
Visibility 10 miles    
Events      
Averages and records for this station are not official NWS values.
T = Trace of Precipitation, MM = Missing Value Source: NWS Daily Summary

Daily Weather History Graph

Daily Weather History Graph

Search for Another Location

Airport:

Trip Planner

Search our weather history database for the weather conditions in past years. The results will help you decide how hot, cold, wet, or windy it might be!

Date:

Astronomy

Apr. 10, 2013 Rise Set
Actual Time 6:20 AM CDT 7:08 PM CDT
Civil Twilight 5:55 AM CDT 7:32 PM CDT
Nautical Twilight 5:26 AM CDT 8:02 PM CDT
Astronomical Twilight 4:56 AM CDT 8:32 PM CDT
Moon 6:18 AM CDT (4/10) 7:39 PM CDT (4/10)
Length of Visible Light 13h 37m
Length of Day
12h 47m
New Moon, 0% of the Moon is Illuminated
Apr 10
New Moon
Apr 18
First Quarter
Apr 25
Full
May 2
Last Quarter
May 9
New

Hourly Weather History & Observations

Time (CDT) Temp. Heat Index Dew Point Humidity Pressure Visibility Wind Dir Wind Speed Gust Speed Precip Events Conditions
12:58 AM 61.9 °F - 58.6 °F 89% 30.09 in 10.0 mi Calm Calm - N/A   Clear
1:58 AM 59.5 °F - 57.0 °F 91% 30.07 in 10.0 mi ENE 3.5 mph - N/A   Clear
2:58 AM 58.1 °F - 56.7 °F 95% 30.04 in 10.0 mi ENE 2.3 mph - N/A   Clear
3:58 AM 58.1 °F - 56.7 °F 95% 30.04 in 10.0 mi NE 3.5 mph - N/A   Clear
4:58 AM 57.0 °F - 55.9 °F 96% 30.04 in 10.0 mi ENE 2.3 mph - N/A   Clear
5:58 AM 57.6 °F - 56.3 °F 96% 30.05 in 10.0 mi ENE 5.8 mph - N/A   Clear
6:58 AM 59.7 °F - 57.6 °F 93% 30.06 in 10.0 mi East 4.6 mph - N/A   Clear
7:58 AM 65.5 °F - 58.8 °F 79% 30.06 in 10.0 mi SE 6.9 mph - N/A   Clear
8:58 AM 71.6 °F - 60.8 °F 69% 30.06 in 10.0 mi SE 13.8 mph - N/A   Clear
9:58 AM 76.5 °F - 62.8 °F 62% 30.08 in 10.0 mi SSE 11.5 mph - N/A   Clear
10:58 AM 79.3 °F - 62.6 °F 56% 30.09 in 10.0 mi SE 10.4 mph - N/A   Clear
11:58 AM 81.3 °F 82.2 °F 61.5 °F 51% 30.08 in 10.0 mi SSE 10.4 mph 16.1 mph N/A   Partly Cloudy
12:58 PM 82.2 °F 82.7 °F 60.8 °F 48% 30.07 in 10.0 mi South 11.5 mph - N/A   Mostly Cloudy
1:58 PM 83.5 °F 83.7 °F 60.8 °F 46% 30.03 in 10.0 mi SSE 10.4 mph - N/A   Mostly Cloudy
2:58 PM 84.9 °F 84.8 °F 60.3 °F 43% 30.01 in 10.0 mi South 8.1 mph - N/A   Partly Cloudy
3:58 PM 83.7 °F 83.4 °F 59.2 °F 43% 30.00 in 10.0 mi Variable 3.5 mph - N/A   Scattered Clouds
4:58 PM 82.4 °F 82.6 °F 59.9 °F 46% 29.99 in 10.0 mi SE 5.8 mph - N/A   Scattered Clouds
5:58 PM 82.4 °F 82.9 °F 60.6 °F 48% 29.97 in 10.0 mi SSE 8.1 mph - N/A   Clear
6:58 PM 77.7 °F - 61.5 °F 57% 29.96 in 10.0 mi South 4.6 mph - N/A   Clear
7:58 PM 73.6 °F - 61.3 °F 65% 29.96 in 10.0 mi South 5.8 mph - N/A   Clear
8:58 PM 71.1 °F - 58.8 °F 65% 29.96 in 10.0 mi South 5.8 mph - N/A   Clear
9:58 PM 69.1 °F - 59.0 °F 70% 29.96 in 10.0 mi South 3.5 mph - N/A   Clear
10:58 PM 66.9 °F - 59.2 °F 76% 29.95 in 10.0 mi SSE 2.3 mph - N/A   Clear
11:58 PM 65.3 °F - 59.0 °F 80% 29.94 in 10.0 mi SSE 4.6 mph - N/A   Clear